Temp
72 73 72 73 73 71 69 68 68 67 71 73 73 74 73 73 73 72 69 68 69 69 69 71 71 70 71 68 69 70 70 73 74 71 75 77 80 80 82 80 75 74 77
70 70 71 71 70 69 69 68 67 66 68 71 70 70 70 72 71 71 69 68 68 68 69 67 69 67 70 68 67 67 68 72 72 67 69 70 76 81 74 73 73 73 73
69 70 70 70 71 68 67 67 66 66 66 66 70 70 72 72 71 70 70 69 67 68 67 67 67 67 70 69 66 66 64 64 71 69 66 63 65 67 76 71 74 71 70
72 72 71 70 69 69 70 68 67 65 67 66 66 64 66 65 66 68 68 68 67 67 67 67 67 64 68 65 66 66 62 62 60 65 67 65 64 59 63 73 75 75 72
73 73 73 72 71 70 69 68 66 65 65 65 64 66 63 66 68 67 65 66 66 66 67 66 65 64 66 66 65 64 64 65 63 57 59 64 64 61 59 60 64 69 67
74 75 74 71 70 71 71 68 66 64 65 65 64 62 60 59 61 61 62 63 63 63 64 65 64 65 66 66 65 62 62 61 63 63 61 57 53 53 52 52 60 64 64
74 73 71 71 70 69 68 69 66 64 65 64 64 62 60 59 58 58 57 56 57 58 60 62 62 64 64 66 66 64 64 64 63 61 65 64 62 62 59 57 57 61 68
75 74 73 72 72 68 67 66 65 64 64 64 63 62 60 61 59 57 59 60 59 60 60 62 64 64 65 66 66 68 67 65 65 63 63 67 67 67 66 64 63 60 64
75 73 72 72 71 68 66 64 65 64 64 64 64 62 59 59 59 61 61 61 60 61 61 62 63 66 66 66 66 66 64 65 65 65 63 65 67 68 68 67 67 63 59
75 73 72 70 69 68 67 64 64 63 64 64 64 61 60 60 63 62 61 63 64 65 64 65 66 66 66 66 64 66 64 63 65 66 63 63 65 66 67 67 67 66 63
75 73 72 69 69 69 68 65 65 63 64 64 63 62 61 62 64 64 64 64 64 65 65 65 65 65 65 65 64 64 64 63 63 64 63 62 63 65 66 67 66 66 65
75 74 71 70 69 69 68 66 65 65 64 64 63 63 63 65 64 64 65 66 64 65 65 65 65 65 65 65 64 64 64 63 62 63 63 63 65 62 64 65 62 62 63
74 73 70 69 68 67 66 66 67 65 65 65 64 64 64 64 64 64 65 66 66 65 65 65 64 64 64 65 65 65 64 64 64 64 63 63 63 62 63 63 63 63 61
71 71 69 68 67 66 65 65 64 65 65 64 65 64 64 64 65 65 66 66 66 65 65 64 65 65 65 64 64 65 64 64 64 64 64 64 62 60 60 61 60 61 61
69 68 68 67 66 65 63 63 64 63 64 64 64 64 65 66 65 65 65 66 66 66 65 65 65 64 65 62 58 61 63 63 63 63 64 64 61 58 58 60 59 58 60
69 68 67 66 64 64 63 62 62 63 64 63 64 65 66 66 64 64 65 65 66 65 65 64 64 63 66 49 48 52 62 63 62 61 62 63 62 60 56 56 56 56 57
68 67 66 64 64 63 63 62 62 63 63 63 65 65 64 64 64 65 65 64 63 64 62 63 63 62 63 47 46 48 64 63 62 61 61 62 64 60 58 56 57 58 55
68 67 66 64 63 64 63 63 63 62 63 63 64 64 64 64 65 64 63 62 64 62 62 62 62 63 62 47 46 47 64 64 63 62 62 60 59 57 53 56 59 60 61
69 67 67 64 63 63 63 62 62 62 62 62 64 65 64 65 64 62 61 62 62 62 62 64 62 62 63 47 45 50 64 63 63 64 63 61 59 47 44 55 56 58 59
67 65 64 63 62 61 61 59 60 61 61 63 64 66 65 64 63 62 62 62 64 62 67 64 64 57 62 47 45 50 65 62 63 64 63 49 53 45 43 53 55 53 55
64 64 62 61 61 60 58 57 60 60 63 64 65 66 67 65 65 65 65 64 64 63 63 63 63 64 61 61 46 45 60 63 62 64 64 64 46 44 43 43 57 53 51
61 62 60 60 60 57 56 57 58 62 63 64 64 65 66 67 69 64 64 64 62 62 63 62 64 68 67 56 51 45 45 49 60 62 64 61 45 44 44 48 44 44 46
61 61 60 59 57 55 57 58 60 63 64 64 64 65 66 67 66 64 64 65 65 65 65 66 66 66 68 67 49 48 46 46 58 64 57 46 46 44 49 49 46 45 57
60 60 59 58 54 56 60 61 63 64 64 64 64 66 65 64 66 68 69 67 67 67 67 67 66 67 67 67 68 68 66 56 58 59 62 57 51 48 53 58 59 59 54
60 59 59 58 58 59 60 63 64 64 64 64 65 65 67 65 66 67 68 68 68 65 66 67 67 66 65 65 50 50 60 61 57 49 62 60 60 56 58 59 59 57 53
59 58 59 59 59 60 61 63 65 65 64 64 66 68 68 69 69 69 68 50 48 46 43 42 48 66 54 46 43 40 40 39 39 57 58 56 55 54 54 55 55 55 43
MSLP
1019.56 1020.11 1020.63 1020.90 1021.14 1021.62 1021.87 1022.06 1021.98 1021.96 1021.44 1020.99 1020.64 1020.15 1019.97 1019.98 1020.12 1020.33 1020.63 1020.39 1019.98 1019.60 1018.99 1018.44 1018.09 1017.82 1017.08 1017.11 1016.76 1016.18 1015.31 1014.42 1014.15 1013.59 1012.09 1011.31 1010.74 1010.57 1010.32 1010.65 1011.27 1011.64 1011.51
1019.64 1020.31 1020.73 1021.08 1021.51 1021.94 1022.29 1022.38 1022.47 1022.55 1022.35 1021.91 1021.68 1021.41 1020.93 1020.52 1020.60 1020.43 1020.50 1020.52 1020.20 1019.77 1019.20 1019.08 1018.35 1018.20 1017.37 1017.08 1017.01 1016.64 1015.77 1014.78 1014.60 1014.15 1012.86 1010.95 1010.23 1010.06 1011.43 1011.92 1012.08 1012.29 1012.26
1019.01 1019.80 1020.51 1021.02 1021.54 1022.08 1022.37 1022.61 1022.92 1022.98 1022.94 1022.79 1021.79 1021.40 1020.59 1020.17 1020.32 1020.37 1020.20 1020.31 1020.33 1019.94 1019.59 1019.21 1018.75 1018.27 1017.47 1017.24 1017.31 1017.13 1016.82 1016.05 1014.89 1014.82 1014.40 1013.07 1011.93 1012.40 1011.36 1011.93 1011.95 1012.28 1012.44
1018.78 1019.27 1020.03 1020.83 1021.48 1021.93 1022.26 1022.76 1023.20 1023.32 1023.09 1023.07 1022.34 1022.11 1021.33 1020.96 1021.12 1020.75 1020.64 1020.30 1020.33 1020.04 1019.70 1019.35 1018.96 1018.79 1017.85 1017.92 1017.58 1017.61 1017.51 1017.11 1016.44 1015.78 1015.38 1015.23 1014.87 1013.99 1012.66 1011.89 1011.46 1011.60 1011.66
1017.88 1018.77 1019.47 1020.48 1021.34 1021.74 1022.30 1022.98 1023.33 1023.42 1023.47 1023.31 1023.12 1022.45 1022.15 1021.69 1021.31 1021.13 1020.94 1020.35 1020.10 1020.09 1019.82 1019.52 1019.15 1018.87 1018.19 1018.09 1018.01 1017.91 1017.49 1017.18 1016.98 1017.11 1016.65 1015.80 1015.16 1015.14 1014.41 1012.90 1012.57 1012.20 1012.55
1017.43 1018.35 1019.38 1020.48 1021.06 1021.60 1022.15 1022.75 1023.09 1023.42 1023.53 1023.30 1023.12 1023.04 1022.93 1022.69 1022.15 1021.91 1021.35 1020.85 1020.55 1020.37 1020.15 1019.83 1019.53 1019.12 1018.54 1018.38 1018.30 1018.34 1018.11 1018.01 1017.43 1017.04 1016.85 1016.85 1016.73 1016.40 1015.93 1015.07 1013.88 1012.99 1012.96
1017.06 1017.94 1019.06 1019.93 1020.79 1021.49 1022.10 1022.44 1023.05 1023.22 1023.38 1023.30 1023.17 1023.31 1023.22 1022.90 1022.63 1022.38 1022.15 1021.92 1021.51 1021.13 1020.74 1020.18 1019.75 1019.26 1019.06 1018.63 1018.40 1018.32 1017.95 1017.90 1017.66 1017.50 1016.67 1016.65 1016.36 1016.14 1015.90 1015.35 1014.55 1013.58 1012.56
1016.50 1017.45 1018.60 1019.61 1020.44 1021.48 1022.10 1022.58 1023.00 1023.09 1023.39 1023.38 1023.34 1023.47 1023.36 1023.10 1023.06 1022.98 1022.52 1021.97 1021.70 1021.22 1021.12 1020.29 1019.88 1019.57 1019.33 1018.92 1018.70 1018.31 1018.19 1018.18 1017.81 1017.72 1017.49 1016.46 1016.26 1016.00 1015.56 1015.07 1014.39 1013.60 1012.47
1015.92 1017.09 1018.50 1019.55 1020.34 1021.35 1022.13 1022.73 1023.00 1023.16 1023.45 1023.45 1023.45 1023.54 1023.67 1023.46 1023.34 1022.93 1022.41 1021.91 1021.75 1021.30 1021.16 1020.74 1020.24 1019.83 1019.64 1019.44 1018.97 1018.87 1018.89 1018.56 1018.17 1017.81 1017.86 1017.24 1016.75 1016.37 1015.98 1015.43 1014.79 1014.16 1013.00
1015.59 1016.94 1018.40 1019.52 1020.56 1021.36 1022.22 1022.87 1023.16 1023.36 1023.49 1023.48 1023.49 1023.67 1023.68 1023.55 1023.19 1022.79 1022.48 1022.10 1021.73 1021.34 1021.05 1020.65 1020.38 1020.17 1019.97 1019.88 1019.61 1019.18 1019.32 1019.00 1018.67 1018.28 1018.19 1017.84 1017.43 1016.64 1016.27 1015.88 1015.15 1014.64 1014.14
1015.21 1016.73 1018.13 1019.58 1020.52 1021.34 1021.88 1022.57 1022.84 1023.24 1023.34 1023.45 1023.60 1023.55 1023.60 1023.36 1023.03 1022.69 1022.49 1022.22 1021.98 1021.69 1021.35 1021.08 1020.76 1020.49 1020.24 1020.20 1020.07 1019.80 1019.59 1019.30 1019.05 1018.77 1018.35 1018.03 1017.73 1017.20 1016.57 1015.92 1015.52 1014.88 1014.53
1014.99 1016.42 1018.00 1019.28 1020.17 1020.87 1021.65 1022.27 1022.80 1023.03 1023.41 1023.61 1023.62 1023.57 1023.43 1023.17 1023.05 1022.91 1022.60 1022.30 1022.08 1021.88 1021.64 1021.35 1021.05 1020.76 1020.54 1020.35 1020.17 1019.86 1019.69 1019.42 1019.16 1018.89 1018.53 1018.14 1017.78 1017.37 1016.76 1016.18 1015.79 1015.26 1015.02
1014.92 1016.31 1017.95 1019.04 1019.94 1020.75 1021.64 1022.18 1022.64 1023.01 1023.37 1023.59 1023.48 1023.45 1023.32 1023.21 1023.06 1022.86 1022.70 1022.36 1022.11 1021.93 1021.80 1021.52 1021.25 1020.99 1020.70 1020.45 1020.20 1020.04 1019.69 1019.37 1019.03 1018.88 1018.61 1018.22 1017.83 1017.39 1017.03 1016.60 1015.87 1015.29 1015.06
1015.03 1016.37 1017.74 1018.85 1019.90 1020.78 1021.61 1022.17 1022.60 1023.07 1023.38 1023.48 1023.39 1023.34 1023.33 1023.22 1022.99 1022.78 1022.51 1022.27 1022.09 1022.02 1021.91 1021.72 1021.40 1021.11 1021.01 1021.05 1020.77 1020.35 1019.97 1019.60 1019.21 1018.95 1018.59 1018.17 1018.03 1018.00 1017.74 1016.97 1016.24 1015.50 1015.14
1015.12 1016.40 1017.55 1018.69 1019.90 1020.74 1021.70 1022.27 1022.63 1023.08 1023.34 1023.31 1023.36 1023.40 1023.35 1023.18 1022.99 1022.79 1022.55 1022.33 1022.08 1022.01 1021.98 1021.75 1021.50 1021.38 1021.22 1021.99 1022.02 1021.18 1020.30 1019.78 1019.33 1018.98 1018.62 1018.24 1018.45 1018.47 1018.22 1017.58 1016.92 1016.29 1015.39
1015.02 1016.43 1017.57 1018.85 1019.89 1020.69 1021.44 1022.23 1022.59 1022.94 1023.19 1023.14 1023.25 1023.34 1023.21 1023.00 1022.95 1022.79 1022.50 1022.25 1022.04 1022.06 1022.03 1021.92 1021.76 1021.79 1021.75 1022.67 1022.50 1022.01 1020.72 1019.98 1019.51 1019.14 1018.88 1018.59 1018.00 1018.22 1018.14 1017.65 1017.04 1016.40 1015.57
1015.13 1016.49 1017.76 1019.04 1019.96 1020.77 1021.51 1022.02 1022.48 1022.91 1022.97 1022.95 1023.16 1023.22 1023.12 1022.96 1022.90 1022.70 1022.45 1022.33 1022.18 1022.06 1022.13 1022.08 1022.03 1022.06 1022.32 1022.76 1022.49 1021.96 1020.70 1020.02 1019.74 1019.51 1019.22 1018.85 1018.48 1018.38 1018.29 1017.42 1016.29 1015.45 1014.96
1015.33 1016.66 1017.98 1019.09 1020.14 1020.88 1021.57 1021.97 1022.47 1022.73 1022.78 1022.87 1023.08 1023.13 1023.00 1022.82 1022.76 1022.58 1022.55 1022.46 1022.26 1022.23 1022.20 1022.15 1022.18 1022.12 1022.41 1022.77 1022.53 1021.77 1020.60 1019.99 1019.61 1019.43 1019.22 1019.31 1019.02 1018.90 1018.78 1017.62 1016.17 1015.39 1014.64
1015.70 1016.98 1018.16 1019.35 1020.31 1021.01 1021.57 1021.96 1022.36 1022.61 1022.70 1022.76 1022.89 1022.97 1022.94 1022.75 1022.60 1022.62 1022.69 1022.61 1022.45 1022.34 1022.26 1022.20 1022.10 1022.08 1022.15 1022.56 1022.52 1022.05 1020.23 1019.80 1019.44 1019.07 1019.06 1019.25 1019.12 1019.18 1018.86 1017.77 1016.38 1015.35 1014.59
1016.39 1017.51 1018.75 1019.72 1020.50 1021.18 1021.80 1022.06 1022.17 1022.42 1022.47 1022.67 1022.89 1022.94 1022.90 1022.81 1022.72 1022.81 1022.75 1022.63 1022.41 1022.27 1021.91 1021.92 1021.87 1021.95 1021.87 1022.23 1022.37 1022.21 1020.67 1019.87 1019.32 1018.68 1018.58 1019.09 1019.14 1019.21 1018.85 1018.07 1016.74 1015.89 1015.12
1017.24 1018.29 1019.22 1019.86 1020.57 1021.34 1022.03 1022.06 1022.11 1022.22 1022.46 1022.78 1022.86 1022.81 1022.75 1022.75 1022.72 1022.66 1022.59 1022.41 1022.19 1022.04 1021.80 1021.57 1021.49 1021.43 1021.51 1021.69 1021.98 1022.19 1021.52 1020.36 1019.52 1018.53 1018.19 1018.38 1019.10 1018.99 1018.36 1017.79 1016.76 1016.34 1015.68
1018.00 1018.73 1019.38 1020.03 1020.87 1021.75 1022.14 1022.04 1022.05 1022.28 1022.64 1022.65 1022.65 1022.53 1022.50 1022.42 1022.30 1022.37 1022.16 1021.98 1021.87 1021.47 1021.20 1021.10 1020.65 1020.23 1020.66 1021.04 1021.46 1021.81 1021.70 1020.97 1019.98 1018.77 1018.43 1018.55 1018.69 1018.22 1017.46 1017.08 1016.29 1015.58 1014.80
1018.25 1018.96 1019.46 1020.27 1021.29 1021.98 1021.97 1021.79 1021.98 1022.37 1022.46 1022.41 1022.30 1022.23 1022.23 1022.05 1022.01 1021.92 1021.62 1021.24 1020.92 1020.76 1020.37 1019.98 1019.82 1019.64 1019.72 1019.91 1020.45 1020.62 1020.63 1020.33 1019.77 1018.78 1018.61 1018.29 1017.87 1017.41 1016.67 1015.95 1015.28 1014.72 1014.23
1018.38 1019.09 1019.65 1020.25 1021.20 1021.66 1021.67 1021.62 1021.96 1022.20 1022.17 1021.99 1021.98 1021.95 1021.90 1021.84 1021.64 1021.29 1020.83 1020.56 1020.29 1020.12 1019.84 1019.55 1019.30 1019.21 1019.15 1019.12 1019.31 1019.64 1019.52 1019.07 1018.84 1018.52 1018.13 1017.58 1017.15 1016.55 1015.84 1015.11 1014.66 1014.41 1014.75
1018.52 1019.17 1019.58 1020.04 1020.68 1021.19 1021.43 1021.58 1021.88 1022.02 1021.80 1021.76 1021.74 1021.68 1021.32 1021.38 1021.03 1020.80 1020.59 1020.42 1020.33 1020.34 1020.32 1019.90 1019.56 1019.21 1019.02 1019.05 1020.13 1020.54 1020.14 1019.66 1019.26 1019.13 1017.79 1017.11 1016.50 1016.43 1015.84 1015.24 1014.58 1014.48 1015.25
1018.63 1019.17 1019.57 1019.97 1020.45 1020.90 1021.20 1021.48 1021.70 1021.69 1021.52 1021.49 1021.42 1021.39 1021.07 1020.54 1020.31 1020.15 1019.96 1020.22 1020.36 1020.47 1020.53 1020.47 1020.59 1019.76 1019.55 1019.67 1019.81 1019.66 1019.69 1019.39 1019.14 1018.26 1017.36 1016.94 1016.77 1016.33 1015.93 1015.41 1014.62 1014.57 1016.11
Wind_Speed
10 9 8 8 9 9 10 11 12 12 9 9 9 7 8 6 6 6 8 10 9 10 9 8 8 9 8 9 10 9 10 8 8 10 9 10 11 11 5 8 5 3 3
10 9 8 7 8 9 9 10 11 12 11 8 7 6 6 6 5 6 6 8 10 9 9 9 8 9 8 8 9 10 9 7 7 9 11 7 6 3 6 5 5 7 5
12 11 9 7 8 8 8 10 10 10 10 11 7 8 5 5 6 7 6 8 9 9 9 9 8 8 7 8 8 9 11 9 9 8 7 7 8 10 3 5 2 3 4
11 11 10 8 7 7 9 9 8 9 10 11 10 9 8 7 6 6 7 7 7 8 8 8 8 7 7 7 7 7 6 8 9 9 9 4 5 4 7 6 5 5 5
13 12 11 9 8 7 8 7 7 9 10 10 9 9 9 8 7 7 9 6 6 7 9 9 8 7 6 7 8 8 9 6 6 4 7 9 7 9 8 8 10 6 6
14 12 10 9 7 6 6 6 8 9 8 9 9 9 10 10 9 10 8 8 6 6 8 9 8 8 8 8 7 7 7 7 9 7 5 4 2 6 3 3 9 10 6
14 13 12 10 7 5 6 6 9 8 9 9 9 10 9 7 9 9 8 9 7 8 9 8 7 7 7 8 8 8 7 9 8 9 7 4 5 4 4 7 7 9 7
15 13 12 9 8 6 6 7 6 8 9 9 9 7 8 7 7 7 6 6 6 6 7 7 8 8 9 9 8 8 8 8 7 10 10 8 7 7 7 7 8 9 8
16 14 12 9 8 6 7 5 7 8 8 8 6 7 7 7 6 6 6 6 7 6 6 6 7 9 10 10 9 8 9 9 8 9 10 9 7 7 7 7 8 8 10
16 14 12 10 7 6 7 5 6 7 7 6 6 6 5 6 5 6 8 9 9 10 9 9 8 8 9 10 10 8 9 9 8 7 9 10 9 8 7 8 7 8 8
15 14 12 10 9 7 6 5 5 5 5 6 5 6 5 3 6 6 7 8 8 9 9 8 7 8 8 9 8 7 8 9 9 9 9 10 9 9 8 7 7 7 8
15 14 12 11 9 7 6 6 4 4 5 4 4 5 5 5 6 6 6 7 8 8 8 7 7 8 7 6 7 7 7 9 9 10 10 10 9 10 8 10 8 5 7
16 14 13 11 9 7 5 4 3 5 4 2 3 3 5 5 5 5 5 6 7 8 9 7 8 7 7 6 6 7 8 10 9 9 10 11 11 10 11 11 10 10 7
15 14 12 11 9 7 6 5 5 4 4 3 2 4 4 4 5 5 4 5 5 7 9 8 7 8 9 10 12 11 10 10 10 10 10 10 12 12 12 12 13 10 12
16 15 13 11 9 8 7 5 5 6 4 5 2 2 3 3 5 6 5 4 4 6 7 8 7 7 7 9 11 11 11 10 11 11 11 12 8 13 11 10 12 13 12
16 15 13 12 10 8 7 6 6 6 5 5 2 1 2 3 5 5 6 4 4 5 6 8 8 8 7 10 12 11 9 10 11 11 12 13 10 13 16 15 17 15 13
15 15 13 12 9 8 7 7 6 6 6 5 2 2 4 4 5 4 6 6 5 4 5 6 6 7 8 11 12 13 8 9 9 11 11 13 12 13 17 19 18 13 9
14 14 12 11 9 8 7 7 7 6 6 5 1 3 4 4 3 4 5 5 4 4 5 5 5 6 7 9 11 15 8 10 9 9 10 12 14 13 15 17 16 15 14
12 12 11 11 9 8 8 7 8 7 7 5 1 2 3 2 5 5 5 5 5 4 3 3 4 6 6 6 9 13 11 10 10 8 10 8 13 12 13 16 17 16 14
12 12 12 11 9 8 8 8 8 9 7 5 4 1 4 4 5 5 4 4 3 4 3 2 3 1 6 6 6 9 10 10 10 9 9 8 11 11 12 14 15 17 16
13 13 11 9 9 9 9 9 9 9 6 5 3 3 3 2 1 1 1 2 3 4 3 4 5 6 4 4 1 5 9 8 10 9 9 9 11 11 13 12 13 15 14
13 12 9 9 9 9 9 10 10 8 6 5 5 5 4 3 2 4 4 4 4 5 4 4 7 3 3 7 6 5 7 7 9 11 9 10 10 13 17 12 9 14 15
11 9 9 10 9 10 9 10 10 8 7 6 5 5 4 4 4 5 5 6 5 6 6 5 5 5 4 5 13 12 11 11 8 9 9 12 15 17 13 7 11 13 11
10 9 10 11 11 11 10 10 9 8 7 6 5 4 5 3 4 5 4 5 5 5 6 7 6 6 6 5 6 8 7 7 8 7 11 11 12 15 10 12 11 11 11
9 9 10 10 12 11 11 9 9 7 7 5 4 5 6 5 4 5 5 6 6 5 7 8 8 8 8 5 6 5 8 9 9 11 11 11 11 9 12 14 12 11 14
10 10 11 11 12 12 11 10 8 8 6 6 6 2 5 3 4 5 5 10 11 9 9 12 9 9 9 8 5 6 7 12 11 8 8 9 9 10 10 12 12 11 12
Wind_Direction
122 111 99 91 86 69 58 44 41 29 19 17 5 352 355 359 356 359 2 356 356 357 357 349 349 347 353 354 349 341 333 323 346 306 318 304 272 258 335 17 25 10 94
138 131 129 118 93 79 64 54 41 33 22 9 360 345 336 344 336 357 352 8 355 359 353 353 347 355 336 14 358 1 344 349 356 341 305 318 319 89 49 45 13 25 5
158 153 154 130 112 90 67 53 39 25 24 359 357 349 336 323 359 348 359 357 355 356 358 356 353 348 336 18 4 14 15 356 354 355 358 339 10 339 337 331 294 319 304
170 161 152 142 120 98 73 57 38 22 22 8 357 355 346 352 352 339 6 332 2 355 1 356 1 11 355 16 18 24 10 5 16 347 6 353 313 332 323 328 323 305 261
174 168 156 141 121 99 76 59 38 27 14 3 3 350 5 349 345 344 338 345 4 2 3 2 4 18 6 17 35 2 14 1 14 11 346 343 5 16 318 329 339 339 16
173 165 148 145 129 120 88 67 34 24 6 5 16 11 7 353 355 353 344 352 3 351 15 0 9 1 359 25 7 9 23 13 2 5 26 38 0 347 331 305 320 319 347
175 170 166 163 153 117 72 43 28 14 11 12 17 13 3 14 2 359 6 359 2 356 2 351 6 7 9 14 3 20 20 16 13 8 350 1 353 335 320 324 324 316 323
179 177 170 166 154 124 78 51 18 20 16 18 13 21 15 31 27 25 18 19 22 7 7 4 14 21 23 22 17 34 15 26 19 22 16 350 5 354 346 332 324 325 327
184 176 165 170 150 123 85 46 25 33 29 31 31 43 39 42 36 23 9 26 35 26 29 34 36 42 35 26 1 33 12 3 10 17 8 344 1 351 347 341 340 336 334
180 170 169 160 141 124 112 70 45 39 39 44 39 49 35 54 22 36 35 35 32 35 40 43 43 41 35 30 14 25 37 31 25 25 22 8 6 356 351 339 333 329 329
177 169 168 156 155 148 129 97 57 62 66 53 38 46 58 65 29 33 35 32 35 26 27 25 20 17 21 32 33 35 31 30 24 15 11 13 7 355 359 333 353 327 344
174 170 158 163 162 160 130 99 75 92 84 60 45 60 51 25 35 35 37 39 38 31 23 17 16 17 13 16 18 14 14 12 5 1 356 360 356 346 4 337 359 341 314
171 163 165 167 165 153 137 108 113 103 96 94 103 73 53 43 39 36 34 40 31 32 26 16 22 16 16 12 11 4 358 355 357 359 348 346 346 343 345 333 337 332 331
168 165 171 168 161 154 148 145 131 137 126 142 100 69 41 4 4 349 347 13 20 22 24 21 24 20 33 19 1 358 352 352 353 351 342 347 358 355 344 334 327 332 323
172 170 174 166 163 160 152 157 143 156 150 153 143 59 2 351 1 360 343 343 355 24 19 20 23 20 40 25 354 347 347 351 346 348 352 1 1 359 342 332 338 321 324
175 173 172 166 168 164 165 160 159 167 174 169 149 299 320 341 358 5 8 348 2 28 16 24 29 30 40 10 0 346 332 352 5 358 356 340 2 354 350 334 315 295 304
173 174 171 169 166 165 162 168 169 165 179 171 159 320 318 322 332 347 6 19 15 27 22 23 23 20 30 14 354 343 347 360 6 0 359 346 358 4 343 336 314 322 295
172 168 167 162 161 155 166 153 166 171 175 169 153 310 321 330 314 1 20 21 37 29 19 16 13 8 55 22 353 332 342 19 360 355 1 353 352 12 342 329 331 332 328
161 161 157 155 154 162 157 171 169 171 179 161 115 357 24 58 66 51 38 35 21 14 9 13 3 10 4 43 4 338 325 15 341 351 12 353 354 1 334 328 332 329 328
151 148 149 151 157 157 156 175 172 172 176 159 120 115 102 86 77 57 51 47 11 51 338 351 358 31 330 80 10 344 325 358 335 348 2 113 16 346 331 334 332 337 330
143 145 150 159 158 153 161 181 172 176 151 168 162 174 159 139 90 326 345 359 354 340 343 332 321 297 315 332 25 332 309 347 328 334 346 3 26 325 300 294 333 325 309
143 155 154 155 148 151 174 175 175 158 170 182 193 205 221 252 258 277 286 281 282 276 296 280 278 324 286 220 184 238 264 311 308 318 343 342 326 289 283 287 316 279 279
155 155 154 148 145 169 183 174 166 169 183 188 208 231 248 256 260 272 288 276 242 264 287 309 317 321 344 306 192 208 223 231 265 313 323 274 268 266 289 293 274 274 357
156 160 159 158 160 174 180 173 162 175 191 194 211 219 243 284 261 292 278 287 292 299 303 308 310 318 315 311 360 340 312 258 274 7 316 307 287 294 313 342 347 359 15
155 164 169 167 164 168 171 169 172 187 199 193 206 231 234 235 276 257 307 309 298 312 316 319 323 314 311 13 46 356 324 328 332 320 306 329 344 334 343 340 343 10 6
160 166 169 168 161 167 170 175 184 195 197 203 212 238 285 261 275 299 305 214 241 258 246 258 257 293 293 331 314 251 249 262 265 284 327 320 344 341 341 336 336 14 356